Miscellaneous Local Product
Issued by NWS Hastings, NE

Home | Current Version | Previous Version | Text Only | Print | Product List | Glossary Off
Versions: 1 2 3 4 5 6 7 8 9 10 11 12 13 14 15 16 17 18 19 20 21 22 23 24 25 26 27 28 29 30 31 32 33 34 35 36 37 38 39 40 41 42 43 44 45 46 47 48 49 50

000
AXUS43 KGID 050102
MISGRI

GID CWA HOURLY WEATHER ROUNDUP
NATIONAL WEATHER SERVICE HASTINGS NE
800 PM CDT WED MAY 04 2016

NOTE: "FAIR" INDICATES FEW OR NO CLOUDS BELOW 12,000 FEET WITH NO
SIGNIFICANT WEATHER AND/OR OBSTRUCTIONS TO VISIBILITY.

...SOUTH CENTRAL NEBRASKA...

CITY           SKY/WX    TMP DP  RH WIND       PRES   REMARKS
GRAND ISLAND   CLEAR     63  37  38 N7        30.05S
HASTINGS       CLEAR     65  34  31 N8        30.05S
KEARNEY        CLEAR     64  39  39 NE6       30.07S
ORD            CLEAR     65  38  36 N5        30.04S
YORK           CLEAR     64  32  29 N8        30.03S
AURORA         CLEAR     66  30  25 N9        30.03F
LEXINGTON      CLEAR     66  46  47 NE5       30.06S
HOLDREGE       CLEAR     67  38  34 NE6       30.06F
HEBRON         CLEAR     68  30  23 N7        30.03S

...NEBRASKA PANHANDLE...

CITY           SKY/WX    TMP DP  RH WIND       PRES   REMARKS
CHADRON        CLEAR     71  46  40 SE10      30.03F
ALLIANCE       CLEAR     68  44  42 SE7       30.07F
SCOTTSBLUFF    CLEAR     72  41  32 SE12      30.07F
SIDNEY         CLEAR     68  45  43 E7        30.12S

...WESTERN AND NORTH CENTRAL NEBRASKA...

CITY           SKY/WX    TMP DP  RH WIND       PRES   REMARKS
VALENTINE      CLEAR     69  40  34 E7        30.06F
AINSWORTH      CLEAR     67  40  37 N3        30.07S
ONEILL         CLEAR     66  35  31 N7        30.06S
BROKEN BOW     CLEAR     69  43  38 NE5       30.06S
IMPERIAL       CLEAR     73  43  33 NE5       30.08F
NORTH PLATTE   CLEAR     70  40  33 NE5       30.06F
MCCOOK         CLEAR     69  44  40 E8        30.06S

...EASTERN NEBRASKA...

CITY           SKY/WX    TMP DP  RH WIND       PRES   REMARKS
NORFOLK        CLEAR     63  34  33 N9        30.02S
SO SIOUX CITY  CLEAR     63  40  42 NW9       29.99F
TEKAMAH        CLEAR     63  45  51 N8        29.99F
COLUMBUS       CLEAR     66  34  30 NW7       30.03S
ALBION         CLEAR     63  34  33 N6        30.04S
OMAHA EPPLEY   PTCLDY    64  42  44 N8        29.99S
OFFUTT AFB     CLEAR     65  40  39 N7        29.98F
MILLARD        CLEAR     68  36  30 NW6       30.00S HAZE
LINCOLN        CLEAR     68  33  27 NW9       30.01F
NEBRASKA CITY  CLEAR     63  35  35 NE7       30.00S
BEATRICE       CLEAR     63  39  41 N8        30.01F
FALLS CITY     CLEAR     65  36  34 N8        29.98F

...NORTHERN KANSAS...

CITY           SKY/WX    TMP DP  RH WIND       PRES   REMARKS
GOODLAND       CLEAR     68  48  48 E7        30.10F
HILL CITY      CLEAR     71  44  37 E3        30.06F
NORTON         CLEAR     70  37  30 CALM      30.06
PHILLIPSBURG   CLEAR     68  43  40 N5        30.05S
SMITH CENTER   CLEAR     63  41  45 N6        30.05S
BELOIT         CLEAR     66  39  37 N5        30.02S
HAYS           CLEAR     68  45  42 NE5       30.05F
RUSSELL        CLEAR     67  42  40 NE7       30.03F
CONCORDIA      CLEAR     65  34  31 N6        30.02F
SALINA         CLEAR     67  41  38 N7        30.03S
TOPEKA         CLEAR     65  36  34 N7        29.99S



USA.gov is the U.S. government's official web portal to all federal, state and local government web resources and services.